Location: Savignano sul Rubicone
(44.0950°N, 12.4090°E)
Time: 07:06:58
(UTC+01:00)

N. Korean satellite - Pass Details

Date: 31 October 2019
Orbit: 456 x 506 km, 97.2° (Epoch: 18 November)

Event Time Altitude Azimuth Distance (km) Brightness Sun altitude
Rises 05:48:37 0° 17° (NNE) 2,597 10.4 -10.7°
Reaches altitude 10° 05:50:44 10° 22° (NNE) 1,715 9.5 -10.3°
Maximum altitude 05:54:21 50° 99° (E) 648 7.7 -9.6°
Drops below altitude 10° 05:57:57 10° 176° (S) 1,713 9.5 -9.0°
Sets 06:00:04 0° 182° (S) 2,594 10.4 -8.6°
